CW0133 Weather Reports


Display with metric or nautical units.
time (UTC)temp
F
wind
direction
speed
MPH
gust
MPH
rain 1hr
in
rain 24hr
in
rain mn
in
humidity
%
barometer
mb
20260903123004 81 178 6.0 14.0 0.00 0.00 0.00 85 1014.1
20260903122504 81 182 7.0 13.0 0.00 0.00 0.00 85 1014.1
20260903122004 81 180 7.0 13.0 0.00 0.00 0.00 85 1014.0
20260903121504 81 176 6.0 13.0 0.00 0.00 0.00 85 1013.9
20260903121004 81 175 6.0 12.0 0.00 0.00 0.00 85 1013.9
20260903120504 81 177 7.0 12.0 0.00 0.00 0.00 86 1013.9
20260903120004 81 178 7.0 16.0 0.00 0.00 0.00 86 1013.8
20260903115504 81 180 7.0 16.0 0.00 0.00 0.00 86 1013.7
20260903115004 81 178 7.0 13.0 0.00 0.00 0.00 86 1013.7
20260903114504 81 174 6.0 11.0 0.00 0.00 0.00 86 1013.7
20260903114004 81 178 5.0 8.0 0.00 0.00 0.00 86 1013.7
20260903113504 81 181 5.0 10.0 0.00 0.00 0.00 87 1013.7
20260903113004 80 177 6.0 12.0 0.00 0.00 0.00 87 1013.6
20260903112504 80 173 7.0 12.0 0.00 0.00 0.00 87 1013.7
20260903112025 80 172 6.0 12.0 0.00 0.00 0.00 87 1013.7
20260903111504 80 172 6.0 12.0 0.00 0.00 0.00 87 1013.7
20260903111004 80 170 7.0 12.0 0.00 0.00 0.00 87 1013.7
20260903110504 80 171 7.0 12.0 0.00 0.00 0.00 88 1013.6
20260903110004 80 172 6.0 12.0 0.00 0.00 0.00 88 1013.6
20260903105504 80 171 6.0 12.0 0.00 0.00 0.00 88 1013.7
20260903105004 80 168 6.0 11.0 0.00 0.00 0.00 88 1013.7
20260903104504 80 169 6.0 11.0 0.00 0.00 0.00 88 1013.6
20260903104005 80 170 5.0 8.0 0.00 0.00 0.00 88 1013.6
20260903103504 80 170 5.0 11.0 0.00 0.00 0.00 88 1013.5
20260903103004 80 174 5.0 11.0 0.00 0.00 0.00 88 1013.5
20260903102504 80 174 5.0 10.0 0.00 0.00 0.00 88 1013.5
20260903102004 80 172 5.0 10.0 0.00 0.00 0.00 88 1013.6
20260903101504 80 170 5.0 10.0 0.00 0.00 0.00 88 1013.5
20260903101025 80 165 5.0 10.0 0.00 0.00 0.00 88 1013.5
20260903100504 80 166 5.0 8.0 0.00 0.00 0.00 88 1013.6
20260903100004 80 165 5.0 8.0 0.00 0.00 0.00 88 1013.6
20260903095504 80 168 5.0 10.0 0.00 0.00 0.00 87 1013.6
20260903095004 80 170 4.0 10.0 0.00 0.00 0.00 87 1013.6
20260903094525 80 166 5.0 8.0 0.00 0.00 0.00 87 1013.6
20260903094025 80 166 5.0 11.0 0.00 0.00 0.00 87 1013.7
20260903093525 80 165 5.0 11.0 0.00 0.00 0.00 87 1013.7
20260903093004 80 166 5.0 10.0 0.00 0.00 0.00 87 1013.7
20260903092504 80 170 5.0 8.0 0.00 0.00 0.00 87 1013.7
20260903092004 80 170 5.0 8.0 0.00 0.00 0.00 87 1013.8
20260903091525 80 169 6.0 11.0 0.00 0.00 0.00 87 1013.7
20260903091025 80 167 5.0 11.0 0.00 0.00 0.00 86 1013.7
20260903090504 80 166 5.0 11.0 0.00 0.00 0.00 86 1013.8
20260903090004 80 168 5.0 11.0 0.00 0.00 0.00 86 1013.8
20260903085504 80 173 5.0 10.0 0.00 0.00 0.00 86 1013.8
20260903085003 80 172 5.0 10.0 0.00 0.00 0.00 86 1013.8
20260903084504 81 167 5.0 10.0 0.00 0.00 0.00 86 1013.7
20260903084004 81 163 6.0 10.0 0.00 0.00 0.00 86 1013.7
20260903083504 81 166 6.0 12.0 0.00 0.00 0.00 85 1013.8
20260903083004 81 166 6.0 12.0 0.00 0.00 0.00 85 1013.8
20260903082504 81 168 5.0 10.0 0.00 0.00 0.00 85 1013.7
20260903082025 81 170 6.0 10.0 0.00 0.00 0.00 85 1013.8
20260903081503 81 167 6.0 12.0 0.00 0.00 0.00 85 1013.8
20260903081004 81 167 7.0 12.0 0.00 0.00 0.00 84 1013.8
20260903080525 81 167 6.0 12.0 0.00 0.00 0.00 84 1013.8
20260903080004 81 165 6.0 12.0 0.00 0.00 0.00 84 1013.8
20260903075504 81 166 6.0 12.0 0.00 0.00 0.00 84 1013.9
20260903075004 81 163 6.0 11.0 0.00 0.00 0.00 83 1014.0
20260903074504 81 158 6.0 11.0 0.00 0.00 0.00 83 1014.0
20260903074025 82 159 6.0 11.0 0.00 0.00 0.00 83 1014.0
20260903073503 82 153 6.0 12.0 0.00 0.00 0.00 83 1014.1
20260903073004 82 155 6.0 12.0 0.00 0.00 0.00 82 1014.1
20260903072504 82 156 6.0 12.0 0.00 0.00 0.00 82 1014.0
20260903072004 82 154 6.0 12.0 0.00 0.00 0.00 82 1014.1
20260903071524 82 161 7.0 12.0 0.00 0.00 0.00 81 1014.1
20260903071004 82 163 6.0 12.0 0.00 0.00 0.00 81 1014.1
20260903070524 82 160 6.0 12.0 0.00 0.00 0.00 80 1014.2
20260903070004 82 157 6.0 12.0 0.00 0.00 0.00 80 1014.2
20260903065504 82 159 6.0 12.0 0.00 0.00 0.00 79 1014.3
20260903065004 82 160 6.0 12.0 0.00 0.00 0.00 79 1014.2
20260903064504 83 154 6.0 11.0 0.00 0.00 0.00 78 1014.2
20260903064003 83 155 6.0 12.0 0.00 0.00 0.00 78 1014.2
20260903063503 83 162 6.0 12.0 0.00 0.00 0.00 77 1014.2
20260903063004 83 161 5.0 10.0 0.00 0.00 0.00 76 1014.2
20260903062504 83 157 5.0 11.0 0.00 0.00 0.00 76 1014.2
20260903062003 83 157 6.0 13.0 0.00 0.00 0.00 76 1014.2
20260903061504 83 159 7.0 13.0 0.00 0.00 0.00 75 1014.2
20260903061003 83 155 7.0 16.0 0.00 0.00 0.00 74 1014.2
20260903060503 84 150 7.0 16.0 0.00 0.00 0.00 73 1014.2
20260903060003 84 161 8.0 16.0 0.00 0.00 0.00 73 1014.2
20260903055503 84 162 8.0 16.0 0.00 0.00 0.00 72 1014.2
20260903055004 84 151 7.0 17.0 0.00 0.00 0.00 72 1014.2
20260903054504 84 155 8.0 18.0 0.00 0.00 0.00 71 1014.2
20260903054003 84 155 8.0 18.0 0.00 0.00 0.00 71 1014.2
20260903053503 84 147 8.0 17.0 0.00 0.00 0.00 70 1014.2
20260903053003 84 147 7.0 14.0 0.00 0.00 0.00 70 1014.2
20260903052525 84 138 6.0 14.0 0.00 0.00 0.00 71 1014.1
20260903052003 84 129 6.0 14.0 0.00 0.00 0.00 71 1014.2
20260903051503 84 129 7.0 14.0 0.00 0.00 0.00 71 1014.3
20260903051003 84 127 7.0 14.0 0.00 0.00 0.00 70 1014.2
20260903050504 85 126 7.0 14.0 0.00 0.00 0.00 70 1014.1
20260903050004 85 123 6.0 13.0 0.00 0.00 0.00 69 1014.1
20260903045503 85 118 6.0 13.0 0.00 0.00 0.00 69 1014.2
20260903045025 85 120 5.0 12.0 0.00 0.00 0.00 69 1014.1
20260903044503 85 121 7.0 14.0 0.00 0.00 0.00 68 1013.9
20260903044003 86 122 8.0 16.0 0.00 0.00 0.00 68 1013.8
20260903043503 86 122 7.0 16.0 0.00 0.00 0.00 67 1013.8
20260903043025 86 119 7.0 16.0 0.00 0.00 0.00 67 1013.8
20260903042503 86 115 7.0 12.0 0.00 0.00 0.00 66 1013.8
20260903042004 86 115 6.0 12.0 0.00 0.00 0.00 65 1013.8
20260903041503 86 114 5.0 12.0 0.00 0.00 0.00 64 1013.8
20260903041004 86 108 5.0 10.0 0.00 0.00 0.00 63 1013.8
20260903040503 86 110 5.0 12.0 0.00 0.00 0.00 63 1013.7
20260903040004 87 117 5.0 12.0 0.00 0.00 0.00 63 1013.7
20260903035524 87 113 5.0 12.0 0.00 0.00 0.00 62 1013.7
20260903035003 87 106 5.0 12.0 0.00 0.00 0.00 62 1013.7
20260903034503 87 107 5.0 13.0 0.00 0.00 0.00 61 1013.7
20260903034004 87 105 6.0 13.0 0.00 0.00 0.00 61 1013.7
20260903033504 88 103 7.0 18.0 0.00 0.00 0.00 61 1013.7
20260903033024 88 106 7.0 18.0 0.00 0.00 0.00 60 1013.7
20260903032504 88 111 7.0 14.0 0.00 0.00 0.00 59 1013.6
20260903032003 88 111 7.0 18.0 0.00 0.00 0.00 59 1013.6
20260903031503 88 109 7.0 18.0 0.00 0.00 0.00 58 1013.5
20260903031003 88 107 6.0 17.0 0.00 0.00 0.00 58 1013.4
20260903030503 88 102 4.0 14.0 0.00 0.00 0.00 57 1013.2
20260903030004 88 92 4.0 11.0 0.00 0.00 0.00 57 1013.0
20260903025525 89 88 2.0 10.0 0.00 0.00 0.00 57 1012.9
20260903025003 89 92 2.0 10.0 0.00 0.00 0.00 57 1012.7
20260903024503 89 106 2.0 5.0 0.00 0.00 0.00 57 1012.7
20260903024024 89 111 2.0 6.0 0.00 0.00 0.00 56 1012.7
20260903023503 90 111 2.0 6.0 0.00 0.00 0.00 55 1012.7
20260903023003 90 106 2.0 5.0 0.00 0.00 0.00 55 1012.5
20260903022504 90 101 2.0 6.0 0.00 0.00 0.00 55 1012.5
20260903022024 90 102 2.0 6.0 0.00 0.00 0.00 55 1012.3
20260903021524 90 105 2.0 7.0 0.00 0.00 0.00 54 1012.3
20260903021024 91 105 2.0 7.0 0.00 0.00 0.00 54 1012.2
20260903020524 91 101 4.0 10.0 0.00 0.00 0.00 53 1012.2
20260903020003 91 95 4.0 10.0 0.00 0.00 0.00 53 1012.0
20260903015503 92 78 1.0 8.0 0.00 0.00 0.00 52 1012.1
20260903015003 92 58 1.0 4.0 0.00 0.00 0.00 51 1011.8
20260903014504 92 60 2.0 5.0 0.00 0.00 0.00 51 1011.7
20260903014003 92 62 2.0 5.0 0.00 0.00 0.00 51 1011.7
20260903013503 92 42 2.0 6.0 0.00 0.00 0.00 50 1011.6
20260903013003 93 37 2.0 6.0 0.00 0.00 0.00 50 1011.6
20260903012503 93 33 4.0 6.0 0.00 0.00 0.00 49 1011.6
20260903012003 94 33 2.0 10.0 0.00 0.00 0.00 48 1011.4
20260903011503 94 53 1.0 10.0 0.00 0.00 0.00 48 1011.6
20260903011024 94 178 0.0 1.0 0.00 0.00 0.00 50 1011.5
20260903010524 95 178 0.0 1.0 0.00 0.00 0.00 49 1011.4
20260903010003 95 0 0.0 0.0 0.00 0.00 0.00 49 1011.4
20260903005503 96 0 0.0 0.0 0.00 0.00 0.00 48 1011.5
20260903005003 96 178 0.0 1.0 0.00 0.00 0.00 48 1011.5
20260903004503 97 178 0.0 1.0 0.00 0.00 0.00 46 1011.5
20260903004003 97 178 0.0 1.0 0.00 0.00 0.00 45 1011.4
20260903003503 97 178 0.0 2.0 0.00 0.00 0.00 44 1011.4
20260903003004 98 178 0.0 2.0 0.00 0.00 0.00 44 1011.4
20260903002525 98 178 1.0 2.0 0.00 0.00 0.00 44 1011.4
20260903002004 98 178 1.0 2.0 0.00 0.00 0.00 43 1011.4
20260903001504 98 178 1.0 2.0 0.00 0.00 0.00 41 1011.4
20260903001004 98 178 0.0 1.0 0.00 0.00 0.00 41 1011.4
20260903000504 99 178 0.0 1.0 0.00 0.00 0.00 40 1011.5
20260903000004 99 178 1.0 2.0 0.00 0.00 0.00 40 1011.4
20260902235525 99 173 2.0 6.0 0.00 0.00 0.00 39 1011.5
20260902235004 99 166 2.0 6.0 0.00 0.00 0.00 39 1011.5
20260902234504 99 156 1.0 5.0 0.00 0.00 0.00 40 1011.4
20260902234004 99 158 1.0 5.0 0.00 0.00 0.00 41 1011.5
20260902233525 99 174 1.0 5.0 0.00 0.00 0.00 41 1011.5
20260902233004 99 184 1.0 2.0 0.00 0.00 0.00 40 1011.6
20260902232504 99 184 1.0 2.0 0.00 0.00 0.00 42 1011.6
20260902232004 99 184 1.0 4.0 0.00 0.00 0.00 42 1011.6
20260902231504 99 185 2.0 7.0 0.00 0.00 0.00 42 1011.6
20260902231004 99 170 4.0 7.0 0.00 0.00 0.00 41 1011.6
20260902230526 99 157 4.0 7.0 0.00 0.00 0.00 41 1011.6
20260902230004 98 145 2.0 6.0 0.00 0.00 0.00 42 1011.5
20260902225504 98 141 2.0 8.0 0.00 0.00 0.00 42 1011.5
20260902225004 98 164 1.0 8.0 0.00 0.00 0.00 43 1011.5
20260902224525 98 195 1.0 2.0 0.00 0.00 0.00 46 1011.6
20260902224004 98 195 1.0 4.0 0.00 0.00 0.00 46 1011.5
20260902223504 98 195 1.0 5.0 0.00 0.00 0.00 45 1011.5
20260902223004 98 201 2.0 5.0 0.00 0.00 0.00 45 1011.6
20260902222504 98 205 4.0 6.0 0.00 0.00 0.00 45 1011.7
20260902222004 98 210 2.0 6.0 0.00 0.00 0.00 45 1011.8
20260902221504 98 210 4.0 8.0 0.00 0.00 0.00 44 1011.7
20260902221004 98 209 4.0 8.0 0.00 0.00 0.00 43 1011.8
20260902220504 98 216 4.0 7.0 0.00 0.00 0.00 44 1011.9
20260902220004 99 209 5.0 8.0 0.00 0.00 0.00 43 1011.8
20260902215504 99 205 5.0 8.0 0.00 0.00 0.00 43 1011.8
20260902215004 100 207 5.0 11.0 0.00 0.00 0.00 43 1011.9
20260902214504 100 202 6.0 11.0 0.00 0.00 0.00 42 1011.9
20260902214004 100 199 6.0 12.0 0.00 0.00 0.00 42 1012.0
20260902213525 101 197 5.0 12.0 0.00 0.00 0.00 41 1011.9
20260902213004 101 202 2.0 8.0 0.00 0.00 0.00 41 1012.1
20260902212504 101 204 4.0 8.0 0.00 0.00 0.00 40 1012.1
20260902212004 101 197 5.0 10.0 0.00 0.00 0.00 40 1012.1
20260902211504 101 199 5.0 11.0 0.00 0.00 0.00 39 1012.1
20260902211004 102 195 4.0 11.0 0.00 0.00 0.00 40 1012.2
20260902210504 102 171 4.0 10.0 0.00 0.00 0.00 39 1012.3
20260902210004 102 130 4.0 7.0 0.00 0.00 0.00 40 1012.3
20260902205525 102 125 4.0 7.0 0.00 0.00 0.00 39 1012.4
20260902205025 102 145 4.0 10.0 0.00 0.00 0.00 39 1012.5
20260902204504 102 138 5.0 11.0 0.00 0.00 0.00 39 1012.5
20260902204004 102 122 5.0 11.0 0.00 0.00 0.00 41 1012.7
20260902203504 101 115 5.0 13.0 0.00 0.00 0.00 42 1012.6
20260902203004 100 107 6.0 13.0 0.00 0.00 0.00 43 1012.7
20260902202504 100 102 5.0 11.0 0.00 0.00 0.00 43 1012.8
20260902202025 99 109 4.0 10.0 0.00 0.00 0.00 44 1012.8
20260902201503 99 252 2.0 6.0 0.00 0.00 0.00 45 1013.0
20260902201004 99 214 2.0 6.0 0.00 0.00 0.00 44 1013.1
20260902200504 99 215 2.0 6.0 0.00 0.00 0.00 43 1013.1
20260902200004 99 256 4.0 8.0 0.00 0.00 0.00 43 1013.2
20260902195503 100 264 4.0 8.0 0.00 0.00 0.00 42 1013.3
20260902195003 100 273 2.0 8.0 0.00 0.00 0.00 41 1013.4
20260902194525 100 239 4.0 7.0 0.00 0.00 0.00 40 1013.4
20260902194004 101 215 2.0 7.0 0.00 0.00 0.00 39 1013.4
20260902193504 102 300 1.0 5.0 0.00 0.00 0.00 39 1013.5
20260902193024 102 290 2.0 5.0 0.00 0.00 0.00 39 1013.5
20260902192504 102 276 4.0 7.0 0.00 0.00 0.00 37 1013.6
20260902192025 103 238 4.0 8.0 0.00 0.00 0.00 37 1013.6
20260902191504 104 160 5.0 8.0 0.00 0.00 0.00 37 1013.7
20260902191004 104 155 4.0 8.0 0.00 0.00 0.00 35 1013.8
20260902190525 104 237 5.0 13.0 0.00 0.00 0.00 36 1013.9
20260902190025 104 308 5.0 13.0 0.00 0.00 0.00 38 1013.8
20260902185504 104 341 4.0 8.0 0.00 0.00 0.00 37 1013.9
20260902185004 104 49 4.0 8.0 0.00 0.00 0.00 38 1014.1
20260902184504 104 69 5.0 8.0 0.00 0.00 0.00 36 1014.2
20260902184003 104 157 5.0 11.0 0.00 0.00 0.00 38 1014.2
20260902183504 104 185 5.0 12.0 0.00 0.00 0.00 37 1014.3
20260902183004 103 212 6.0 12.0 0.00 0.00 0.00 38 1014.4
20260902182504 102 239 5.0 12.0 0.00 0.00 0.00 39 1014.5
20260902182004 101 237 4.0 12.0 0.00 0.00 0.00 40 1014.6
20260902181504 100 223 4.0 7.0 0.00 0.00 0.00 42 1014.7
20260902181004 100 187 4.0 7.0 0.00 0.00 0.00 43 1014.8
20260902180503 100 194 4.0 8.0 0.00 0.00 0.00 42 1014.9
20260902180006 100 169 4.0 10.0 0.00 0.00 0.00 40 1015.1
20260902175504 100 164 5.0 11.0 0.00 0.00 0.00 41 1015.1
20260902175004 100 176 5.0 11.0 0.00 0.00 0.00 42 1015.1
20260902174503 100 180 5.0 13.0 0.00 0.00 0.00 42 1015.3
20260902174003 99 186 4.0 13.0 0.00 0.00 0.00 43 1015.3
20260902173503 99 137 2.0 8.0 0.00 0.00 0.00 44 1015.4
20260902173003 98 168 4.0 8.0 0.00 0.00 0.00 45 1015.6
20260902172503 98 208 5.0 14.0 0.00 0.00 0.00 44 1015.5
20260902172004 97 197 6.0 14.0 0.00 0.00 0.00 46 1015.7
20260902171503 97 198 5.0 13.0 0.00 0.00 0.00 47 1015.8
20260902171004 96 205 5.0 14.0 0.00 0.00 0.00 47 1015.9
20260902170525 96 189 5.0 14.0 0.00 0.00 0.00 48 1016.0
20260902170004 96 175 6.0 14.0 0.00 0.00 0.00 50 1016.0
20260902165504 95 183 7.0 14.0 0.00 0.00 0.00 48 1016.1
20260902165004 95 205 5.0 13.0 0.00 0.00 0.00 49 1016.1
20260902164504 94 203 5.0 11.0 0.00 0.00 0.00 50 1016.2
20260902164003 94 200 5.0 12.0 0.00 0.00 0.00 50 1016.2
20260902163504 93 205 4.0 12.0 0.00 0.00 0.00 51 1016.2
20260902163004 93 202 4.0 8.0 0.00 0.00 0.00 54 1016.2
20260902162504 92 208 4.0 8.0 0.00 0.00 0.00 54 1016.3
20260902162004 92 206 4.0 11.0 0.00 0.00 0.00 54 1016.3
20260902161504 92 227 4.0 11.0 0.00 0.00 0.00 54 1016.3
20260902161024 91 237 4.0 11.0 0.00 0.00 0.00 57 1016.4
20260902160503 91 212 4.0 8.0 0.00 0.00 0.00 57 1016.4
20260902160005 90 209 4.0 8.0 0.00 0.00 0.00 60 1016.3
20260902155504 90 247 4.0 8.0 0.00 0.00 0.00 59 1016.3
20260902155004 90 229 5.0 13.0 0.00 0.00 0.00 60 1016.3
20260902154503 89 198 6.0 13.0 0.00 0.00 0.00 60 1016.3
20260902154003 89 196 6.0 13.0 0.00 0.00 0.00 62 1016.3
20260902153503 89 195 6.0 13.0 0.00 0.00 0.00 63 1016.2
20260902153004 88 197 6.0 14.0 0.00 0.00 0.00 64 1016.3
20260902152503 88 197 6.0 17.0 0.00 0.00 0.00 64 1016.3
20260902152003 87 196 7.0 17.0 0.00 0.00 0.00 66 1016.2
20260902151503 87 207 6.0 16.0 0.00 0.00 0.00 66 1016.2
20260902151003 86 219 4.0 10.0 0.00 0.00 0.00 70 1016.2
20260902150503 85 202 5.0 10.0 0.00 0.00 0.00 72 1016.2
20260902150003 85 187 6.0 12.0 0.00 0.00 0.00 73 1016.2
20260902145524 84 194 6.0 12.0 0.00 0.00 0.00 73 1016.2
20260902145024 84 205 5.0 11.0 0.00 0.00 0.00 75 1016.3
20260902144503 83 188 6.0 12.0 0.00 0.00 0.00 76 1016.4
20260902144003 83 187 6.0 12.0 0.00 0.00 0.00 77 1016.5
20260902143503 82 192 5.0 10.0 0.00 0.00 0.00 79 1016.6
20260902143003 82 185 5.0 10.0 0.00 0.00 0.00 81 1016.6
20260902142503 81 188 4.0 8.0 0.00 0.00 0.00 82 1016.6
20260902142003 80 197 4.0 8.0 0.00 0.00 0.00 83 1016.6
20260902141503 80 196 5.0 8.0 0.00 0.00 0.00 84 1016.6
20260902141003 79 193 5.0 8.0 0.00 0.00 0.00 85 1016.6
20260902140503 78 186 4.0 8.0 0.00 0.00 0.00 86 1016.6
20260902140003 78 192 2.0 8.0 0.00 0.00 0.00 87 1016.6
20260902135503 77 205 4.0 7.0 0.00 0.00 0.00 88 1016.5
20260902135004 77 197 4.0 7.0 0.00 0.00 0.00 88 1016.5
20260902134503 76 193 5.0 10.0 0.00 0.00 0.00 89 1016.5
20260902134024 76 195 4.0 10.0 0.00 0.00 0.00 90 1016.5
20260902133503 75 191 1.0 7.0 0.00 0.00 0.00 90 1016.4
20260902133024 75 192 1.0 5.0 0.00 0.00 0.00 90 1016.4
20260902132524 74 192 0.0 1.0 0.00 0.00 0.00 90 1016.4
20260902132003 74 192 0.0 1.0 0.00 0.00 0.00 89 1016.2
20260902131503 74 192 0.0 2.0 0.00 0.00 0.00 88 1016.1
20260902131003 73 192 0.0 2.0 0.00 0.00 0.00 88 1016.1
20260902130503 73 192 0.0 1.0 0.00 0.00 0.00 87 1016.0
20260902130003 73 192 0.0 1.0 0.00 0.00 0.00 87 1016.0
20260902125524 73 192 0.0 1.0 0.00 0.00 0.00 87 1016.0
20260902125003 73 192 0.0 1.0 0.00 0.00 0.00 86 1016.0
20260902124504 73 0 0.0 0.0 0.00 0.00 0.00 86 1015.9
20260902124003 73 0 0.0 0.0 0.00 0.00 0.00 85 1015.8
20260902123503 73 0 0.0 0.0 0.00 0.00 0.00 85 1015.8